Location: Newark
(49.3000°N, 9.4667°E)
Time: 14:10:53
(UTC+00:00)

Transit 2A Rocket - Pass Details

Date: 20 May 2019
Orbit: 586 x 917 km, 66.7° (Epoch: 20 June)

Event Time Altitude Azimuth Distance (km) Brightness Sun altitude
Rises 23:43:56 0° 321° (NW) 3,520 9.1 -20.4°
Reaches altitude 10° 23:47:07 10° 337° (NNW) 2,540 8.5 -20.3°
Maximum altitude 23:51:37 22° 26° (NNE) 1,767 7.7 -20.2°
Drops below altitude 10° 23:55:52 10° 77° (ENE) 2,384 7.8 -20.1°
Sets 23:58:44 0° 93° (E) 3,249 8.3 -20.0°
